Regional Weather Roundup
Issued by NWS

Home | Current Version | Previous Version | Graphics & Text | Print | Product List | Glossary On
Versions: 1 2 3 4 5 6 7 8 9 10 11 12 13 14 15 16 17 18 19 20 21 22 23 24 25 26 27 28 29 30 31 32 33 34 35 36 37 38 39 40 41 42 43 44 45 46 47 48 49 50
000
ASUS43 KLOT 221210
RWRIL

ILLINOIS REGIONAL WEATHER ROUNDUP
NATIONAL WEATHER SERVICE CHICAGO/ROMEOVILLE IL
600 AM CST SAT NOV 22 2014

NOTE: "FAIR" INDICATES FEW OR NO CLOUDS BELOW 12,000 FEET WITH NO
SIGNIFICANT WEATHER AND/OR OBSTRUCTIONS TO VISIBILITY.

* THESE STATIONS ARE NOT UNDER NWS QUALITY CONTROL. THEY ALSO MAY NOT
  REPORT WEATHER SUCH AS PRECIPITATION OR FOG.

ILZ001-002-007-009-015-016-024-221300-
NORTHWEST ILLINOIS

CITY           SKY/WX    TMP DP  RH WIND       PRES   REMARKS
MOLINE         CLOUDY    40  37  89 S6        29.99F FOG
6HR MIN TEMP:  34; 6HR MAX TEMP:  40; 6HR PCP:  0.11;

STERLING*      CLOUDY    36  34  93 S5        30.01F WCI  32
SAVANNA*       DRZL/FOG  34  33  95 S5        29.99F VSB 1   WCI  30
$$

ILZ003-004-008-010-011-017-018-221300-
NORTH CENTRAL ILLINOIS

CITY           SKY/WX    TMP DP  RH WIND       PRES   REMARKS
ROCKFORD       CLOUDY    34  32  92 S7        30.03F FOG     WCI  28
6HR MIN TEMP:  32; 6HR MAX TEMP:  34; 6HR PCP:  0.21;

FREEPORT*      FOG       33  32  98 SW8       30.01F VSB 1   WCI  26
ROCHELLE*      CLOUDY    34  33  99 S9        30.02F FOG     WCI  26
DE KALB*       MIX PCPN  32  32  99 S10       30.02F VSB 1   WCI  24
PERU*          CLOUDY    40  37  92 S8        30.05S FOG
$$

ILZ005-006-012>014-019>023-221300-
NORTHEAST ILLINOIS

CITY           SKY/WX    TMP DP  RH WIND       PRES   REMARKS
CHICAGO-OHARE  DRIZZLE   35  33  92 SW10G20   30.04F FOG     WCI  27
6HR MIN TEMP:  33; 6HR MAX TEMP:  35; 6HR PCP:  0.06;

CHICAGO-MIDWAY CLOUDY    37  34  89 SW13      30.06F FOG     WCI  29
6HR MIN TEMP:  34; 6HR MAX TEMP:  38; 6HR PCP:  0.04;

AURORA         MIX PCPN  36  33  89 S9        30.04F FOG     WCI  29
6HR MIN TEMP:  34; 6HR MAX TEMP:  37; 6HR PCP:  0.09;

LANSING*       CLOUDY    35  33  92 S9        30.08F WCI  27
JOLIET*        CLOUDY    35  34  94 S6        30.07S FOG     WCI  30
WAUKEGAN       LGT RAIN  34  32  92 SW18      30.01F FOG     WCI  23
6HR MIN TEMP:  32; 6HR MAX TEMP:  35; 6HR PCP:  0.07;

DUPAGE AIRPORT LGT RAIN  34  33  96 S12       30.03F FOG     WCI  25
6HR MIN TEMP:  32; 6HR MAX TEMP:  35; 6HR PCP:  0.05;

KANKAKEE*      CLOUDY    36  33  88 S13       30.09F WCI  27
WHEELING       CLOUDY    35  33  92 S13       30.05F FOG     WCI  26
6HR MIN TEMP:  33; 6HR MAX TEMP:  36; 6HR PCP:  0.10;

MORRIS*        CLOUDY    36  36  97 S5        30.06S FOG     WCI  32
ROMEOVILLE*    DRIZZLE   36  35  97 S9        30.06F WCI  29
NORTHERLY ISL    N/A     36  33  89 S9          N/A  WCI  29
$$

LMZ740>746-221300-
SOUTHERN LAKE MICHIGAN

STATION/POSITION SKY/WX   TEMP    WIND        PRES    VSBY  WAVE
                          AIR SEA DIR/SP/G                  HT/PER
                          (F)     (DEG/KT/KT) (MB)    (MI)  (FT/S)
SOUTHERN BUOY              39 43  210/ 25/ 29 1017.1F         7/ 7
WAUKEGAN HARBOR            35     220/ 13/ 18   N/A
HARRISON CRIB              35     200/ 24/ 29   N/A
BURNHAM HARBOR             36     220/ 12/ 14   N/A
CALUMET HARBOR             35     190/  8/ 14 1017.0S
MICHIGAN CITY              36     180/ 15/ 18   N/A
$$

ILZ025>027-034>036-040-047-049-050-058-095>099-221300-
WEST-CENTRAL ILLINOIS

CITY           SKY/WX    TMP DP  RH WIND       PRES   REMARKS
QUINCY         CLOUDY    46  42  86 S12       30.03F
GALESBURG*     CLOUDY    41  38  91 S10       30.02S
MACOMB*        CLOUDY    42  39  90 S12       30.04F
JACKSONVILLE*  CLOUDY    44  39  82 S10       30.07F
PITTSFIELD*    CLOUDY    44  40  87 S7        30.07F
$$

ILZ028>032-037-038-041>044-048-051>054-059>061-221300-
CENTRAL ILLINOIS

CITY           SKY/WX    TMP DP  RH WIND       PRES   REMARKS
PONTIAC        LGT RAIN  39  36  89 S16       30.07F WCI  30
BLOOMINGTON    LGT RAIN  37  34  89 S15       30.09F WCI  28
DECATUR        CLOUDY    42  34  73 S14       30.11F
PEORIA         CLOUDY    41  37  86 S10       30.06F FOG
6HR MIN TEMP:  34; 6HR MAX TEMP:  41; 6HR PCP:  0.01;

LACON*         CLOUDY    41  37  87 SW8       30.04F FOG
LINCOLN*       CLOUDY    40  35  80 S10       30.10F
SPRINGFIELD    CLOUDY    41  35  79 S10       30.09F
6HR MIN TEMP:  38; 6HR MAX TEMP:  41; 6HR PCP: TRACE;

TAYLORVILLE    CLOUDY    41  34  75 S14       30.11F
$$

ILZ033-039-045-046-055>057-062-063-221300-
EAST-CENTRAL ILLINOIS

CITY           SKY/WX    TMP DP  RH WIND       PRES   REMARKS
CHAMPAIGN      LGT RAIN  39  33  79 S10       30.12F WCI  32
DANVILLE*      CLOUDY    39  32  75 SW14G21   30.10F WCI  31
RANTOUL*       RAIN      39  34  82 S12       30.11S WCI  32
MATTOON        CLOUDY    42  32  67 S15       30.13F
PARIS*         CLOUDY    40  32  73 S16       30.15F
$$

ILZ079-100>102-221300-
SOUTHWEST ILLINOIS

CITY           SKY/WX    TMP DP  RH WIND       PRES   REMARKS
BELLEVILLE     MOCLDY    44  41  89 S6        30.14S
CAHOKIA*       CLOUDY    44  38  79 SE8       30.13F
SPARTA*        CLOUDY    47  40  77 S10       30.18R
$$

ILZ064>066-069>071-074>076-080>082-084>086-088>090-092>094-221300-
SOUTH-CENTRAL ILLINOIS

CITY           SKY/WX    TMP DP  RH WIND       PRES   REMARKS
CARBONDALE     CLOUDY    47  40  76 S6        30.20F
6HR MIN TEMP:  42; 6HR MAX TEMP:  47;

CAIRO*         MOCLDY    52  42  68 S9        30.24R
EFFINGHAM*     CLOUDY    42  30  63 S6        30.16F
MARION         CLOUDY    50  41  71 S14       30.21F
MT. VERNON     CLOUDY    43  36  75 S7        30.19S
CENTRALIA*     PTCLDY    47  39  74 S13       30.16S
SALEM*           N/A     49  41  72 S9G16     30.17S
METROPOLIS*    CLOUDY    54  43  66 S8        30.24S
$$

ILZ067-068-072-073-078-083-087-091-221300-
SOUTHEAST ILLINOIS

CITY           SKY/WX    TMP DP  RH WIND       PRES   REMARKS
LAWRENCEVILLE  CLOUDY    42  33  70 S12       30.21F
FLORA*         CLEAR     40  33  75 S8        30.19S
FAIRFIELD*     MOCLDY    43  35  74 S6        30.19S
HARRISBURG*    CLOUDY    52  41  65 S9        30.23F
ROBINSON*      MOCLDY    41  32  70 S9        30.20F
CARMI*         CLOUDY    46  40  78 S9        30.21F
$$

ABBREVIATIONS USED IN REMARKS
   TC - TEMPERATURE IN CELSIUS
  WCI - WIND CHILL INDEX
   HX - HEAT INDEX
  VSB - VISIBILITY
$$



USA.gov is the U.S. government's official web portal to all federal, state and local government web resources and services.